Location: Brusselsch Zeekanaal
(50.8667°N, 4.3667°E)
Time: 02:20:29
(UTC+00:00)

CENTAUR R/B - Pass Details

Date: 08 November 2025
Orbit: 633 x 1547 km, 63.4° (Epoch: 13 December)

Event Time Altitude Azimuth Distance (km) Brightness Sun altitude
Exits shadow 03:52:17 24° 330° (NNW) 2,235 4.1 -27.6°
Maximum altitude 03:55:47 35° 15° (NNE) 1,942 4.1 -27.0°
Drops below altitude 10° 04:03:38 10° 79° (ENE) 3,555 6.4 -25.8°
Sets 04:07:11 0° 87° (E) 4,620 7.4 -25.3°
